Regional Weather Roundup
Issued by NWS

Home | Current Version | Previous Version | Text Only | Print | Product List | Glossary On
Versions: 1 2 3 4 5 6 7 8 9 10 11 12 13 14 15 16 17 18 19 20 21 22 23 24 25 26 27 28 29 30 31 32 33 34 35 36 37 38 39 40 41 42 43 44 45 46 47 48 49 50
081
ASUS43 KTOP 091459
RWRKS

WEATHER ROUNDUP FOR KANSAS
NATIONAL WEATHER SERVICE GOODLAND KS
900 AM CST FRI DEC 09 2016

NOTE:  "FAIR" INDICATES FEW OR NO CLOUDS BELOW 12,000 FEET WITH NO
SIGNIFICANT WEATHER AND/OR OBSTRUCTIONS TO VISIBILITY.

KSZ001>006-013>018-027>032-041>047-091600-
NORTHWEST KANSAS

CITY           SKY/WX    TMP DP  RH WIND       PRES   REMARKS
GOODLAND       CLOUDY    12   7  80 SE10      30.24R WCI  -1
HAYS           CLOUDY    20  11  68 SE14      30.47S WCI   7
HILL CITY      CLOUDY    20   9  62 S12       30.43S WCI   8
RUSSELL        CLOUDY    19  11  70 S16       30.48F WCI   4
$$

KSZ061>065-074>080-084>089-091600-
SOUTHWEST KANSAS

CITY           SKY/WX    TMP DP  RH WIND       PRES   REMARKS
DODGE CITY     CLOUDY    20   8  60 SE18      30.42S WCI   5
ELKHART          N/A     26  13  58 S15         N/A  WCI  14
GARDEN CITY    CLOUDY    22   8  55 SE20      30.33F WCI   7
GREAT BEND     CLOUDY    20  11  68 SE15      30.51R WCI   6
LIBERAL        CLOUDY    27  10  50 E16       30.32F WCI  14
$$

KSZ066>073-081>083-090>101-091600-
SOUTHEAST KANSAS

CITY           SKY/WX    TMP DP  RH WIND       PRES   REMARKS
CHANUTE        CLOUDY    21  13  71 E5        30.65R
COFFEYVILLE    SUNNY     20  15  81 CALM      30.68R
HUTCHINSON     CLOUDY    21  14  74 SE9       30.57S
MEDICINE LODGE   N/A     20  10  65 SE10      30.55F WCI   9
NEWTON         CLOUDY    19  13  77 SE14      30.58S WCI   6
PARSONS        SUNNY     20  15  81 CALM      30.67R
WICHITA INTL   CLOUDY    21  13  71 SE6       30.60R
WICHITA JABRA  CLOUDY    20  12  71 SE9       30.59S
WINFIELD       CLOUDY    21  13  71 SE8       30.63R
$$

KSZ007>012-019>026-033>040-048>060-102>105-091600-
NORTHEAST KANSAS

CITY           SKY/WX    TMP DP  RH WIND       PRES   REMARKS
CONCORDIA      CLOUDY    19  12  74 S10       30.57S WCI   7
EMPORIA        CLOUDY    19  13  77 SE7       30.62S
LAWRENCE       CLOUDY    17  13  84 CALM      30.67R
MANHATTAN      CLOUDY    19  13  77 CALM      30.63R
OLATHE IND     CLOUDY    17  11  77 SE5       30.65R
OLATHE EXE     CLOUDY    16  10  77 SE3       30.64S
SALINA         CLOUDY    21  12  68 SE10      30.59S WCI  10
TOPEKA BILLARD CLOUDY    19  11  70 SE3       30.66R
TOPEKA FORBES  CLOUDY    19  12  74 SE5       30.64R
$$




USA.gov is the U.S. government's official web portal to all federal, state and local government web resources and services.